Location: Isola Pescaroli
(45.0500°N, 10.1667°E)
Time: 15:19:54
(UTC+00:00)

Cosmos 1503 Rocket - Pass Details

Date: 03 March 2021
Orbit: 753 x 790 km, 74.0° (Epoch: 11 April)

Event Time Altitude Azimuth Distance (km) Brightness Sun altitude
Rises 18:29:41 0° 338° (NNW) 3,229 7.6 -14.9°
Reaches altitude 10° 18:32:04 10° 337° (NNW) 2,295 6.8 -15.4°
Maximum altitude 18:37:16 82° 251° (WSW) 767 4.0 -16.3°
Drops below altitude 10° 18:42:25 10° 164° (SSE) 2,270 6.2 -17.2°
Enters shadow 18:44:34 - 164° (SSE) 3,117 6.9 -17.5°
